Location: ???????????
(55.5758°N, 38.4970°E)
Time: 16:58:35
(UTC+00:00)

COSMOS 2455 - Pass Details

Date: 15 November 2025
Orbit: 898 x 910 km, 67.1° (Epoch: 14 December)

Event Time Altitude Azimuth Distance (km) Brightness Sun altitude
Exits shadow 00:46:06 35° 23° (NNE) 1,431 4.1 -35.3°
Drops below altitude 10° 00:49:42 10° 41° (NE) 2,608 5.9 -34.8°
Sets 00:52:17 0° 46° (NE) 3,553 6.8 -34.5°
